{"data":{"norad_id":69563,"intl_designator":"2026-135T","name":"STARLINK-37936","alt_names":[],"object_type":"PAYLOAD","status":"ACTIVE","operator":null,"country":"US","launch_date":"2026-06-15","launch_site_code":"AFWTR","launch_vehicle":null,"mission":null,"orbit_class":"UNKNOWN","rcs_meters":null,"size_class":null,"mass_kg":null,"dimensions":null,"purposes":["comms"],"wikipedia_slug":null,"has_3d_model":false,"image_url":null,"decayed_at":null,"tle_current":{"epoch":"2026-09-19T12:38:37.671360Z","epoch_age_seconds":105751,"freshness":"FRESH","line1":"1 69563U 26135T   26262.52682490  .00014582  00000+0  45308-3 0  9992","line2":"2 69563  97.2826 290.2657 0000655 104.2704 255.8611 15.33449563 14859","mean_motion":15.33449563,"eccentricity":6.55e-5,"inclination_deg":97.2826,"raan_deg":290.2657,"arg_perigee_deg":104.2704,"mean_anomaly_deg":255.8611,"bstar":0.00045308,"rev_number":1485,"period_min":93.9059252254,"perigee_km":465.08133807196,"apogee_km":465.97785839633,"semimajor_km":6843.6665982341,"source":"CELESTRAK","updated_at":"2026-09-20T09:00:44.245256Z"}}}